Time,TemperatureF,DewpointF,PressureIn,WindDirection,WindDirectionDegrees,WindSpeedMPH,WindSpeedGustMPH,Humidity,HourlyPrecipIn,Conditions,Clouds,dailyrainin,SolarRadiationWatts/m^2,SoftwareType,DateUTC
2013-02-19 00:02:00,-999.0,-99.9,-100.00,ENE,67,0.0,0.0,60,0.00,,,0.00,0.000000,,2013-02-19 09:02:00,
2013-02-19 00:11:00,-999.0,-99.9,-100.00,ENE,67,0.0,0.0,60,0.00,,,0.00,0.000000,,2013-02-19 09:11:00,
2013-02-19 00:22:00,-999.0,-99.9,-100.00,ENE,67,0.0,0.0,60,0.00,,,0.00,0.000000,,2013-02-19 09:22:00,
2013-02-19 00:53:00,-33.0,-43.0,-100.00,ENE,65,0.0,0.0,57,0.00,,,-99.99,0.000000,,2013-02-19 09:53:00,
2013-02-19 01:01:00,-33.0,-43.0,-100.00,ENE,65,0.0,0.0,57,0.00,,,-99.99,0.000000,,2013-02-19 10:01:00,
2013-02-19 01:52:00,-34.0,-43.0,-100.00,NE,45,0.0,0.0,58,0.00,,,0.00,0.000000,,2013-02-19 10:52:00,
2013-02-19 02:01:00,-34.0,-43.0,-100.00,NE,45,0.0,0.0,58,0.00,,,0.00,0.000000,,2013-02-19 11:01:00,
2013-02-19 02:52:00,-36.0,-46.0,-100.00,ESE,115,0.0,0.0,54,0.00,,,0.00,0.000000,,2013-02-19 11:52:00,
2013-02-19 03:01:00,-36.0,-46.0,-100.00,ESE,115,0.0,0.0,54,0.00,,,0.00,0.000000,,2013-02-19 12:01:00,
2013-02-19 03:52:00,-37.0,-47.0,-100.00,NNW,344,0.0,0.0,55,0.00,,,-99.99,0.000000,,2013-02-19 12:52:00,
2013-02-19 04:02:00,-37.0,-47.0,-100.00,NNW,344,0.0,0.0,55,0.00,,,-99.99,0.000000,,2013-02-19 13:02:00,
2013-02-19 04:52:00,-38.0,-49.0,-100.00,ENE,68,0.0,0.0,53,0.00,,,0.00,0.000000,,2013-02-19 13:52:00,
2013-02-19 05:01:00,-38.0,-49.0,-100.00,ENE,68,0.0,0.0,53,0.00,,,0.00,0.000000,,2013-02-19 14:01:00,
2013-02-19 05:52:00,-39.0,-49.0,-100.00,SW,221,0.0,0.0,56,0.00,,,0.00,0.000000,,2013-02-19 14:52:00,
2013-02-19 06:01:00,-39.0,-49.0,-100.00,SW,221,0.0,0.0,56,0.00,,,0.00,0.000000,,2013-02-19 15:01:00,
2013-02-19 06:52:00,-39.0,-50.0,-100.00,ENE,73,0.0,0.0,51,0.00,,,0.00,0.000000,,2013-02-19 15:52:00,
2013-02-19 07:01:00,-39.0,-50.0,-100.00,ENE,73,0.0,0.0,51,0.00,,,0.00,0.000000,,2013-02-19 16:01:00,
2013-02-19 07:52:00,-40.0,-52.0,-100.00,WSW,245,0.0,0.0,50,0.00,,,0.00,0.000000,,2013-02-19 16:52:00,
2013-02-19 08:01:00,-40.0,-52.0,-100.00,WSW,245,0.0,0.0,50,0.00,,,0.00,0.000000,,2013-02-19 17:01:00,
2013-02-19 08:52:00,-37.0,-47.0,-100.00,NE,54,0.0,0.0,55,-99.99,,,0.00,1.000000,,2013-02-19 17:52:00,
2013-02-19 09:01:00,-37.0,-47.0,-100.00,NE,54,0.0,0.0,55,-99.99,,,0.00,1.000000,,2013-02-19 18:01:00,
2013-02-19 09:52:00,-37.0,-47.0,-100.00,SSE,165,0.0,0.0,55,0.00,,,0.00,12.000000,,2013-02-19 18:52:00,
2013-02-19 10:01:00,-37.0,-47.0,-100.00,SSE,165,0.0,0.0,55,0.00,,,0.00,12.000000,,2013-02-19 19:01:00,
2013-02-19 10:52:00,-27.0,-38.0,-100.00,NW,321,0.0,0.0,55,-99.99,,,0.00,88.000000,,2013-02-19 19:52:00,
2013-02-19 11:01:00,-27.0,-38.0,-100.00,NW,321,0.0,0.0,55,-99.99,,,0.00,88.000000,,2013-02-19 20:01:00,
2013-02-19 11:52:00,-12.0,-20.0,-100.00,ENE,70,0.0,0.0,65,0.00,,,0.00,166.000000,,2013-02-19 20:52:00,
2013-02-19 12:01:00,-12.0,-20.0,-100.00,ENE,70,0.0,0.0,65,0.00,,,0.00,166.000000,,2013-02-19 21:01:00,
2013-02-19 12:11:00,-12.0,-20.0,-100.00,ENE,70,0.0,0.0,65,0.00,,,0.00,166.000000,,2013-02-19 21:11:00,
2013-02-19 12:21:00,-12.0,-20.0,-100.00,ENE,70,0.0,0.0,65,0.00,,,0.00,166.000000,,2013-02-19 21:21:00,
2013-02-19 12:52:00,-6.0,-17.0,-100.00,ENE,77,0.0,0.0,58,0.00,,,0.00,225.000000,,2013-02-19 21:52:00,
2013-02-19 13:01:00,-6.0,-17.0,-100.00,ENE,77,0.0,0.0,58,0.00,,,0.00,225.000000,,2013-02-19 22:01:00,
2013-02-19 13:11:00,-6.0,-17.0,-100.00,ENE,77,0.0,0.0,58,0.00,,,0.00,225.000000,,2013-02-19 22:11:00,
2013-02-19 13:21:00,-6.0,-17.0,-100.00,ENE,77,0.0,0.0,58,0.00,,,0.00,225.000000,,2013-02-19 22:21:00,
2013-02-19 13:52:00,-3.0,-15.0,-100.00,East,90,0.0,0.0,55,0.00,,,0.00,254.000000,,2013-02-19 22:52:00,
2013-02-19 14:01:00,-3.0,-15.0,-100.00,East,90,0.0,0.0,55,0.00,,,0.00,254.000000,,2013-02-19 23:01:00,
2013-02-19 14:11:00,-3.0,-15.0,-100.00,East,90,0.0,0.0,55,0.00,,,0.00,254.000000,,2013-02-19 23:11:00,
2013-02-19 14:21:00,-3.0,-15.0,-100.00,East,90,0.0,0.0,55,0.00,,,0.00,254.000000,,2013-02-19 23:21:00,
2013-02-19 14:52:00,0.0,-13.0,-100.00,East,94,7.0,11.0,53,0.00,,,0.00,240.000000,,2013-02-19 23:52:00,
2013-02-19 15:01:00,0.0,-13.0,-100.00,East,94,7.0,11.0,53,0.00,,,0.00,240.000000,,2013-02-20 00:01:00,
2013-02-19 15:11:00,0.0,-13.0,-100.00,East,94,7.0,11.0,53,0.00,,,0.00,240.000000,,2013-02-20 00:11:00,
2013-02-19 15:21:00,0.0,-13.0,-100.00,East,94,7.0,11.0,53,0.00,,,0.00,240.000000,,2013-02-20 00:21:00,
2013-02-19 15:52:00,0.0,-12.0,-100.00,East,86,7.0,11.0,55,0.00,,,0.00,195.000000,,2013-02-20 00:52:00,
2013-02-19 16:02:00,0.0,-12.0,-100.00,East,86,7.0,11.0,55,0.00,,,0.00,195.000000,,2013-02-20 01:02:00,
2013-02-19 16:11:00,0.0,-12.0,-100.00,East,86,7.0,11.0,55,0.00,,,0.00,195.000000,,2013-02-20 01:11:00,
2013-02-19 16:21:00,0.0,-12.0,-100.00,East,86,7.0,11.0,55,0.00,,,0.00,195.000000,,2013-02-20 01:21:00,
2013-02-19 16:52:00,0.0,-12.0,-100.00,East,89,7.0,13.0,55,0.00,,,0.00,121.000000,,2013-02-20 01:52:00,
2013-02-19 17:01:00,0.0,-12.0,-100.00,East,89,7.0,13.0,55,0.00,,,0.00,121.000000,,2013-02-20 02:01:00,
2013-02-19 17:11:00,0.0,-12.0,-100.00,East,89,7.0,13.0,55,0.00,,,0.00,121.000000,,2013-02-20 02:11:00,
2013-02-19 17:21:00,0.0,-12.0,-100.00,East,89,7.0,13.0,55,0.00,,,0.00,121.000000,,2013-02-20 02:21:00,
2013-02-19 17:52:00,-2.0,-14.0,-100.00,East,88,6.0,10.0,56,0.00,,,0.00,37.000000,,2013-02-20 02:52:00,
2013-02-19 18:01:00,-2.0,-14.0,-100.00,East,88,6.0,10.0,56,0.00,,,0.00,37.000000,,2013-02-20 03:01:00,
2013-02-19 18:12:00,-2.0,-14.0,-100.00,East,88,6.0,10.0,56,0.00,,,0.00,37.000000,,2013-02-20 03:12:00,
2013-02-19 18:21:00,-2.0,-14.0,-100.00,East,88,6.0,10.0,56,0.00,,,0.00,37.000000,,2013-02-20 03:21:00,
2013-02-19 18:52:00,-6.0,-15.0,-100.00,ENE,76,5.0,10.0,63,0.00,,,0.00,3.000000,,2013-02-20 03:52:00,
2013-02-19 19:01:00,-6.0,-15.0,-100.00,ENE,76,5.0,10.0,63,0.00,,,0.00,3.000000,,2013-02-20 04:01:00,
2013-02-19 19:11:00,-6.0,-15.0,-100.00,ENE,76,5.0,10.0,63,0.00,,,0.00,3.000000,,2013-02-20 04:11:00,
2013-02-19 19:21:00,-6.0,-15.0,-100.00,ENE,76,5.0,10.0,63,0.00,,,0.00,3.000000,,2013-02-20 04:21:00,
2013-02-19 19:52:00,-7.0,-17.0,-100.00,East,92,6.0,10.0,60,0.00,,,0.00,0.000000,,2013-02-20 04:52:00,
2013-02-19 20:02:00,-7.0,-17.0,-100.00,East,92,6.0,10.0,60,0.00,,,0.00,0.000000,,2013-02-20 05:02:00,
2013-02-19 20:12:00,-7.0,-17.0,-100.00,East,92,6.0,10.0,60,0.00,,,0.00,0.000000,,2013-02-20 05:12:00,
2013-02-19 20:22:00,-7.0,-17.0,-100.00,East,92,6.0,10.0,60,0.00,,,0.00,0.000000,,2013-02-20 05:22:00,
2013-02-19 20:52:00,-8.0,-18.0,-100.00,East,94,8.0,11.0,61,0.00,,,0.00,0.000000,,2013-02-20 05:52:00,
2013-02-19 21:01:00,-8.0,-18.0,-100.00,East,94,8.0,11.0,61,0.00,,,0.00,0.000000,,2013-02-20 06:01:00,
2013-02-19 21:11:00,-8.0,-18.0,-100.00,East,94,8.0,11.0,61,0.00,,,0.00,0.000000,,2013-02-20 06:11:00,
2013-02-19 21:21:00,-8.0,-18.0,-100.00,East,94,8.0,11.0,61,0.00,,,0.00,0.000000,,2013-02-20 06:21:00,
2013-02-19 21:52:00,-9.0,-19.0,-100.00,East,100,6.0,14.0,59,0.00,,,0.00,0.000000,,2013-02-20 06:52:00,
2013-02-19 22:01:00,-9.0,-19.0,-100.00,East,100,6.0,14.0,59,0.00,,,0.00,0.000000,,2013-02-20 07:01:00,
2013-02-19 22:11:00,-9.0,-19.0,-100.00,East,100,6.0,14.0,59,0.00,,,0.00,0.000000,,2013-02-20 07:11:00,
2013-02-19 22:21:00,-9.0,-19.0,-100.00,East,100,6.0,14.0,59,0.00,,,0.00,0.000000,,2013-02-20 07:21:00,
2013-02-19 22:52:00,-14.0,-22.0,-100.00,ENE,69,5.0,8.0,65,0.00,,,0.00,0.000000,,2013-02-20 07:52:00,
2013-02-19 23:11:00,-14.0,-22.0,-100.00,ENE,69,5.0,8.0,65,0.00,,,0.00,0.000000,,2013-02-20 08:11:00,
2013-02-19 23:21:00,-14.0,-22.0,-100.00,ENE,69,5.0,8.0,65,0.00,,,0.00,0.000000,,2013-02-20 08:21:00,
2013-02-19 23:52:00,-13.0,-21.0,-100.00,ENE,77,6.0,9.0,67,0.00,,,0.00,0.000000,,2013-02-20 08:52:00,